Погода в Бехтерях

Украина / Херсонская область     46°14′55″N   32°17′32″E
темп.,
°C
ветер,
м/с
пор.,
м/с
влажн.,
%
обл.,
%
осадки,
мм/ч
давл.,
гПа
погр.,
м
5 марта, пт
пт523:00+6юз915840 0.0 1014349
02:00+6юз712901 0.0 1014272
05:00+5ююз589188 0.0 1012158
08:00+7ююз469161 0.0 1012185
11:00+9ю117548 0.0 1012352
14:00+11с126346 0.0 1012620
17:00+10св236262 0.0 1012333
20:00+8в117480 0.0 101323
6 марта, сб
сб623:00+8юв4476100 0.0 101256
02:00+7ююз4679100 0.0 1013111
05:00+6зсз4778100 0.0 1013132
08:00+4с111482100 0.0 1016581
11:00+3с101265100 0.0 1020938
14:00+4с91147100 0.0 10221465
17:00+3с894381 0.0 10241608
20:00+1с695041 0.0 1027593
7 марта, вс
вс723:00−1ссз35580 0.0 1029214
02:000з35510 0.0 1029263
05:00+1з58580 0.0 1028439
08:00+2з68550 0.0 10281149
11:00+4з810490 0.0 10261511
14:00+4зюз910480 0.0 10241282
17:00+4юз912520 0.0 10211089
20:00+4юз914620 0.0 1021615
8 марта, пн
пн823:00+4зюз914680 0.0 1020562
02:00+4зюз813740 0.0 1019492
05:00+3зюз611824 0.0 1017359
08:00+4зюз587624 0.0 1017579
11:00+6з56610 0.0 1016695
14:00+6зюз44555 0.0 1015849
17:00+5зюз456498 0.0 1014306
20:00+5сз356499 0.0 1016274
9 марта, вт
вт923:00+3ссв347086 0.0 101794
02:00+1св467948 0.0 1017218
05:000ссв228291 0.0 101995
08:00+1с465696 0.0 1020463
11:00+4ссз554257 0.0 10211389
14:00+4ссз8104047 0.0 10191816
17:00+3с794251 0.0 10201676
20:00+1с585375 0.0 1023783